Regional Weather Roundup
Issued by NWS Goodland, KS

Home | Current Version | Previous Version | Graphics & Text | Print | Product List | Glossary On
Versions: 1 2 3 4 5 6 7 8 9 10 11 12 13 14 15 16 17 18 19 20 21 22 23 24 25 26 27 28 29 30 31 32 33 34 35 36 37 38 39 40 41 42 43 44 45 46 47 48 49 50
000
ASUS43 KGLD 211708
RWRGLD

GOODLAND FORECAST AREA HOURLY WEATHER ROUNDUP
NATIONAL WEATHER SERVICE GOODLAND KS
1100 AM MDT WED JUN 21 2017

...OFFICIAL OBSERVATIONS...

CITY           SKY/WX    TMP DP  RH WIND       PRES   REMARKS
GOODLAND KS    SUNNY     91  60  35 W12       29.88F
HILL CITY KS   SUNNY     93  67  42 SW14      29.82S
IMPERIAL NEB   SUNNY     98  45  16 NW13      29.82F
MCCOOK NEB     SUNNY     94  62  34 S8        29.79F
AKRON CO       SUNNY     94  41  16 NW20G25   29.98F
BURLINGTON CO  SUNNY     95  50  21 NW16G26   29.94S
LIMON CO       SUNNY     92  37  14 N20G28    30.05S
$$

...UNOFFICIAL OBSERVATIONS...

CITY           SKY/WX    TMP DP  RH WIND       PRES   REMARKS
LENORA KS        N/A     88  32  13 MISG        N/A
NORTON KS      SUNNY     93  61  33 S13       29.80F
SHARON SPRINGS   N/A     96  56  26 NW12G18     N/A
TRENTON NEB      N/A     98  32  10 CALM        N/A
KIT CARSON CO    N/A     96  51  21 MISG        N/A
YUMA CO        FAIR      91  45  19 NW18G26   29.93S
$$




USA.gov is the U.S. government's official web portal to all federal, state and local government web resources and services.